Regional Weather Roundup
Issued by NWS

Home | Current Version | Previous Version | Text Only | Print | Product List | Glossary Off
Versions: 1 2 3 4 5 6 7 8 9 10 11 12 13 14 15 16 17 18 19 20 21 22 23 24 25 26 27 28 29 30 31 32 33 34 35 36 37 38 39 40 41 42 43 44 45 46 47 48 49 50

000
ASUS43 KOAX 051102
RWRNE

WEATHER ROUNDUP FOR NEBRASKA
NATIONAL WEATHER SERVICE OMAHA NE
600 AM CDT SUN JUL 05 2015

NOTES: SATELLITE DATA IS BEING USED TO AUGMENT CLOUD COVER ABOVE
       12000 FEET.
       "FAIR" INDICATES FEW OR NO CLOUDS BELOW 12,000 FEET WITH NO
       SIGNIFICANT WEATHER AND/OR OBSTRUCTIONS TO VISIBILITY.

  * THESE STATIONS DO NOT REPORT WEATHER SUCH AS RAIN...SNOW OR FOG.

NEZ001>004-019>022-054>056-051200-
NEBRASKA PANHANDLE

CITY           SKY/WX    TMP DP  RH WIND       PRES   REMARKS
SCOTTSBLUFF    PTCLDY    64  61  90 E3        29.87S
ALLIANCE       CLEAR     64  62  93 SE6       29.85F
CHADRON        CLEAR     63  60  90 NW5       29.80S
KIMBALL          N/A    N/A N/A N/A MISG        N/A
SIDNEY         CLEAR     59  58  96 CALM      29.91R
$$

NEZ057>060-069>072-079>082-051200-
SOUTHWEST NEBRASKA

CITY           SKY/WX    TMP DP  RH WIND       PRES   REMARKS
NORTH PLATTE   CLEAR     72  64  76 SE9       29.84F
IMPERIAL       CLEAR     69  63  81 S9        29.86S
LEXINGTON      PTCLDY    72  66  82 S12G18    29.84S
MCCOOK         CLEAR     76  62  62 S14       29.84S
$$

NEZ005>010-023>029-035>040-094-051200-
NORTH CENTRAL NEBRASKA

CITY           SKY/WX    TMP DP  RH WIND       PRES   REMARKS
VALENTINE      CLEAR     73  53  49 SW10      29.77R
AINSWORTH      CLEAR     72  62  71 S12       29.79R
BROKEN BOW     CLOUDY    71  65  81 CALM      29.86R
O`NEILL        PTCLDY    68  66  92 S9        29.82F
ORD            LGT RAIN  71  63  75 W3        29.85R
$$

NEZ041-046>049-061>064-073>077-083>087-051200-
SOUTH CENTRAL NEBRASKA

CITY           SKY/WX    TMP DP  RH WIND       PRES   REMARKS
GRAND ISLAND   CLOUDY    71  64  78 S16       29.86F
AURORA         CLOUDY    71  66  85 S15       29.86F
HASTINGS       CLOUDY    71  64  78 S12G18    29.87F
KEARNEY *      CLOUDY    72  63  73 S13       29.86S
$$

NEZ011>018-030>034-042>045-051200-
NORTHEAST NEBRASKA

CITY           SKY/WX    TMP DP  RH WIND       PRES   REMARKS
NORFOLK        CLOUDY    71  65  81 S16       29.83F
BLAIR          PTCLDY    68  62  80 S12       29.90F
COLUMBUS *     MOCLDY    70  63  78 S12G20    29.82F
FREMONT        CLOUDY    69  63  81 SE12      29.88F
TEKAMAH        PTCLDY    66  63  90 SE5       29.88F
$$

NEZ050>053-065>068-078-088>093-051200-
SOUTHEAST NEBRASKA

CITY           SKY/WX    TMP DP  RH WIND       PRES   REMARKS
LINCOLN        MOCLDY    70  65  84 S9        29.90F
OMAHA EPPLEY   MOCLDY    70  63  78 S16       29.90F
FALLS CITY     PTCLDY    65  63  93 SE6       29.94F FOG
PLATTSMOUTH    PTCLDY    66  63  87 SE12      29.92F
$$

NEZ044-045-051>053-067-051200-
OMAHA AREA

CITY           SKY/WX    TMP DP  RH WIND       PRES   REMARKS
OMAHA EPPLEY   MOCLDY    70  63  78 S16       29.90F
BLAIR          PTCLDY    68  62  80 S12       29.90F
FREMONT        CLOUDY    69  63  81 SE12      29.88F
MILLARD        MOCLDY    68  64  86 SE7       29.90F
OFFUTT AFB     PTCLDY    67  64  89 E9        29.90F
PLATTSMOUTH    PTCLDY    66  63  87 SE12      29.92F
$$


USA.gov is the U.S. government's official web portal to all federal, state and local government web resources and services.